This is the latest recevied weather packets stored in our database for station/object PD2BVG. If no packets are shown the sender has not sent any weather packets the latest 1 day(s).
| Time | Temp. | Humidity | Pressure | Rain* | Wind** | Luminosity | Snow |
|---|---|---|---|---|---|---|---|
| 1778026621 | 10° C | 81% | 1010.6 hPa | 0 mm | 2.68 m/s, 343° | 0 W/m² | - |
| 1778026561 | 10° C | 81% | 1010.6 hPa | 0 mm | 3.13 m/s, 345° | 0 W/m² | - |
| 1778026501 | 10° C | 81% | 1010.7 hPa | 0 mm | 3.13 m/s, 354° | 0 W/m² | - |
| 1778026441 | 10° C | 81% | 1010.7 hPa | 0 mm | 3.13 m/s, 0° | 0 W/m² | - |
| 1778026381 | 10° C | 81% | 1010.7 hPa | 0 mm | 3.13 m/s, 0° | 0 W/m² | - |
| 1778026321 | 10° C | 81% | 1010.6 hPa | 0 mm | 3.58 m/s, 321° | 0 W/m² | - |
| 1778026263 | 10° C | 81% | 1010.7 hPa | 0 mm | 3.58 m/s, 347° | 0 W/m² | - |
| 1778026201 | 10° C | 81% | 1010.7 hPa | 0 mm | 3.58 m/s, 326° | 0 W/m² | - |
| 1778026138 | 10° C | 81% | 1010.7 hPa | 0 mm | 3.58 m/s, 331° | 0 W/m² | - |
| 1778026077 | 10° C | 81% | 1010.7 hPa | 0 mm | 3.13 m/s, 347° | 0 W/m² | - |
| 1778026017 | 10° C | 81% | 1010.7 hPa | 0 mm | 2.68 m/s, 0° | 0 W/m² | - |
| 1778025956 | 10° C | 81% | 1010.6 hPa | 0 mm | 3.13 m/s, 353° | 0 W/m² | - |
| 1778025895 | 10° C | 81% | 1010.8 hPa | 0 mm | 3.58 m/s, 347° | 0 W/m² | - |
| 1778025835 | 10° C | 81% | 1010.7 hPa | 0 mm | 2.68 m/s, 354° | 0 W/m² | - |
| 1778025775 | 10° C | 81% | 1010.8 hPa | 0 mm | 1.79 m/s, 345° | 0 W/m² | - |
| 1778025713 | 10° C | 81% | 1010.7 hPa | 0 mm | 1.79 m/s, 337° | 0 W/m² | - |
| 1778025651 | 10° C | 81% | 1010.7 hPa | 0 mm | 2.24 m/s, 0° | 0 W/m² | - |
| 1778025589 | 10° C | 81% | 1010.7 hPa | 0 mm | 2.68 m/s, 0° | 0 W/m² | - |
| 1778025528 | 10° C | 81% | 1010.8 hPa | 0 mm | 2.68 m/s, 340° | 0 W/m² | - |
| 1778025467 | 10° C | 81% | 1010.7 hPa | 0 mm | 2.68 m/s, 0° | 0 W/m² | - |
| 1778025407 | 10° C | 81% | 1010.8 hPa | 0 mm | 2.68 m/s, 344° | 0 W/m² | - |
| 1778025346 | 10° C | 80% | 1010.7 hPa | 0 mm | 2.68 m/s, 0° | 0 W/m² | - |
| 1778025285 | 10° C | 80% | 1010.8 hPa | 0 mm | 2.24 m/s, 348° | 0 W/m² | - |
| 1778025223 | 10° C | 80% | 1010.8 hPa | 0 mm | 2.24 m/s, 357° | 0 W/m² | - |
| 1778025160 | 10° C | 80% | 1010.8 hPa | 0 mm | 2.68 m/s, 341° | 0 W/m² | - |
* Rain latest hour (hover to see other rain measurements)
** Current wind speed in m/s (hover to see current wind gust speed)